Regional Weather Roundup
Issued by NWS Little Rock, AR

Home | Current Version | Previous Version | Graphics & Text | Print | Product List | Glossary On
Versions: 1 2 3 4 5 6 7 8 9 10 11 12 13 14 15 16 17 18 19 20 21 22 23 24 25 26 27 28 29 30 31 32 33 34 35 36 37 38 39 40 41 42 43 44 45 46 47 48 49 50
000
ASUS44 KLZK 041605
RWRLZK

WEATHER ROUNDUP FOR ARKANSAS
NATIONAL WEATHER SERVICE LITTLE ROCK AR
1000 AM CST WED MAR 04 2015

NOTE: "FAIR" INDICATES FEW OR NO CLOUDS BELOW 12,000 FEET WITH NO
SIGNIFICANT WEATHER AND/OR OBSTRUCTIONS TO VISIBILITY.

ARZ001-003-010-029-041700-
NORTHWEST ARKANSAS

CITY           SKY/WX    TMP DP  RH WIND       PRES   REMARKS
FAYETTEVILLE   LGT RAIN  32  32 100 NE8       30.08S FOG     WCI  25
FORT SMITH     LGT RAIN  40  37  89 NE9       30.04R
HARRISON       MIX PCPN  32  32 100 N10       30.09R FOG     WCI  24
BENTONVILLE    CLOUDY    28  25  86 N20       30.11R WCI  15
ROGERS         LGT SNOW  28  28 100 N12G17    30.11R FOG     WCI  18
SILOAM SPGS    CLOUDY    30  23  74 NE15G24   30.11R WCI  19
HIGHFILL       LGT SNOW  30  27  88 N17G26    30.10R FOG     WCI  18
SPRINGDALE     FRZ RAIN  32  30  93 N12G23    30.10R FOG     WCI  23
$$

ARZ004-005-016-041700-
NORTH CENTRAL ARKANSAS

CITY           SKY/WX    TMP DP  RH WIND       PRES   REMARKS
BATESVILLE     CLOUDY    39  37  93 N9        30.05S
FLIPPIN        CLOUDY    36  30  80 N8        30.10R
MTN HOME       LGT RAIN  34  34 100 VRB5      30.09R FOG     WCI  30
$$

ARZ040-041-041700-
WEST CENTRAL ARKANSAS

CITY           SKY/WX    TMP DP  RH WIND       PRES   REMARKS
MENA           CLOUDY    48  46  93 N3        29.95S
MOUNT IDA      LGT RAIN  51  48  89 CALM      29.93R
$$

ARZ009-017-025-026-028-041700-
NORTHEAST ARKANSAS

CITY           SKY/WX    TMP DP  RH WIND       PRES   REMARKS
JONESBORO      RAIN      36  32  85 N12       30.05R
WALNUT RIDGE   CLOUDY    36  30  80 N17G23    30.09R
BLYTHEVILLE    LGT SNOW  37  36  96 N26G35    30.03R FOG
$$

ARZ022-023-033-042-044-041700-
CENTRAL ARKANSAS

CITY           SKY/WX    TMP DP  RH WIND       PRES   REMARKS
LITTLE ROCK    LGT RAIN  50  47  89 N14       29.97R FOG
N LITTLE ROCK  CLOUDY    47  47 100 NE15G25   29.97R
JACKSONVILLE   CLOUDY    46  46 100 N14G22    29.97F
SEARCY         LGT RAIN  43  41  93 N17G24    30.02R FOG
HOT SPRINGS    RAIN      52  49  89 NE8G17    29.94R
RUSSELLVILLE   LGT RAIN  41  37  86 N13       30.03R
$$

ARZ036-041700-
EAST ARKANSAS

CITY           SKY/WX    TMP DP  RH WIND       PRES   REMARKS
WEST MEMPHIS   LGT RAIN  40  40 100 N22G32    29.97R
$$

ARZ050-053-066-070-073-041700-
SOUTHWEST ARKANSAS

CITY           SKY/WX    TMP DP  RH WIND       PRES   REMARKS
ARKADELPHIA    LGT RAIN  55  55 100 N7        29.91S FOG
TEXARKANA      LGT RAIN  54  53  97 NW5       29.91S FOG
EL DORADO      CLOUDY    67  65  93 S14       29.89R
DE QUEEN       CLOUDY    54  52  93 VRB6      29.92R
$$

ARZ056-057-069-041700-
SOUTHEAST ARKANSAS

CITY           SKY/WX    TMP DP  RH WIND       PRES   REMARKS
PINE BLUFF     LGT RAIN  49  47  93 N17       29.92F
STUTTGART      CLOUDY    46  43  87 N22G30    29.93F
MONTICELLO     CLOUDY    68  65  90 S12       29.87F

$$





USA.gov is the U.S. government's official web portal to all federal, state and local government web resources and services.